Regional Weather Roundup
Issued by NWS Charleston, WV

Home | Current Version | Previous Version | Text Only | Print | Product List | Glossary Off
Versions: 1 2 3 4 5 6 7 8 9 10 11 12 13 14 15 16 17 18 19 20 21 22 23 24 25 26 27 28

000
ASUS41 KRLX 220110
RWRRLX
West Virginia Regional Weather Roundup
National Weather Service Charleston WV
800 PM EST SUN JAN 21 2018

Note: "fair" indicates few or no clouds below 12,000 feet with no
significant weather and/or obstructions to visibility.

WVZ003-220200-
Northern Panhandle of West Virginia

CITY           SKY/WX    TMP DP  RH WIND       PRES   REMARKS
WHEELING       LGT RAIN  48  42  80 S6        30.08S
$$

WVZ009-220200-
Northwest West Virginia

CITY           SKY/WX    TMP DP  RH WIND       PRES   REMARKS
PARKERSBURG    CLOUDY    56  45  66 CALM      30.11S
$$

WVZ006-220200-
Western West Virginia

CITY           SKY/WX    TMP DP  RH WIND       PRES   REMARKS
HUNTINGTON     CLOUDY    59  45  59 S6        30.09S
$$

WVZ015-220200-
West Central West Virginia

CITY           SKY/WX    TMP DP  RH WIND       PRES   REMARKS
CHARLESTON     CLOUDY    56  44  64 S3        30.11S
$$

WVZ022-031-220200-
North Central West Virginia

CITY           SKY/WX    TMP DP  RH WIND       PRES   REMARKS
CLARKSBURG     CLOUDY    53  45  74 S6        30.11R
MORGANTOWN     CLOUDY    53  44  71 S3        30.10S
$$

WVZ025-035-042-045-220200-
Southern West Virginia

CITY           SKY/WX    TMP DP  RH WIND       PRES   REMARKS
BECKLEY        CLOUDY    49  41  74 S6        30.16S
LOGAN          CLOUDY    54  43  66 S9        30.12F
BLUEFIELD      CLOUDY    50  39  66 SW5       30.19R
LEWISBURG      FOG       37  36  99 N3        30.19R VSB 1/2
$$

WVZ047-220200-
Northern Mountains of West Virginia

CITY           SKY/WX    TMP DP  RH WIND       PRES   REMARKS
ELKINS         CLOUDY    49  44  83 CALM      30.13S
$$

WVZ052-220200-
Eastern Panhandle of West Virginia

CITY           SKY/WX    TMP DP  RH WIND       PRES   REMARKS
MARTINSBURG    CLOUDY    49  41  74 CALM      30.11R
PETERSBURG     CLOUDY    56  43  62 S9        30.12S
$$




USA.gov is the U.S. government's official web portal to all federal, state and local government web resources and services.